Weather History for Mora, MN

Change the Weather History Date:

Sunday, October 5, 2014

  Actual Average Record
Temperature  
Mean Temperature 40 °F -  
Max Temperature 48 °F 62 °F 87 °F (1947)
Min Temperature 32 °F 34 °F 20 °F (1935)
Degree Days  
Heating Degree Days 25    
Moisture  
Dew Point 30 °F    
Average Humidity 72    
Maximum Humidity 87    
Minimum Humidity 50    
Precipitation  
Precipitation 0.00 in - - ()
Sea Level Pressure  
Sea Level Pressure 29.58 in    
Wind  
Wind Speed 6 mph (West)    
Max Wind Speed 15 mph    
Max Gust Speed 23 mph    
Visibility 10 miles    
Events      
Averages and records for this station are not official NWS values.
T = Trace of Precipitation, MM = Missing Value Source: NWS Daily Summary

Daily Weather History Graph

Daily Weather History Graph

Search for Another Location

Airport:

Trip Planner

Search our weather history database for the weather conditions in past years. The results will help you decide how hot, cold, wet, or windy it might be!

Date:

Astronomy

Oct. 05, 2014 Rise Set
Actual Time 7:16 AM CDT 6:45 PM CDT
Civil Twilight 6:46 AM CDT 7:15 PM CDT
Nautical Twilight 6:12 AM CDT 7:49 PM CDT
Astronomical Twilight 5:37 AM CDT 8:24 PM CDT
Moon 5:11 PM CDT (10/5) 3:44 AM CDT (10/5)
Length of Visible Light 12h 28m
Length of Day
11h 28m
Waxing Gibbous, 89% of the Moon is Illuminated
Oct 5
Waxing Gibbous
Oct 8
Full
Oct 15
Last Quarter
Oct 23
New
Oct 30
First Quarter

Hourly Weather History & Observations

Time (CDT) Temp. Windchill Dew Point Humidity Pressure Visibility Wind Dir Wind Speed Gust Speed Precip Events Conditions
12:05 AM 32.0 °F 26.4 °F 26.6 °F 80% 29.67 in 10.0 mi West 5.8 mph - N/A   Clear
12:25 AM 32.0 °F 27.5 °F 26.6 °F 80% 29.66 in 10.0 mi West 4.6 mph - N/A   Clear
12:45 AM 32.0 °F 27.5 °F 26.6 °F 80% 29.66 in 10.0 mi West 4.6 mph - N/A   Clear
1:05 AM 32.0 °F 27.5 °F 26.6 °F 80% 29.65 in 10.0 mi WSW 4.6 mph - N/A   Clear
1:25 AM 32.0 °F 25.6 °F 26.6 °F 80% 29.65 in 10.0 mi West 6.9 mph - N/A   Scattered Clouds
1:45 AM 32.0 °F 27.5 °F 26.6 °F 80% 29.65 in 10.0 mi West 4.6 mph - N/A   Overcast
2:05 AM 32.0 °F 26.4 °F 26.6 °F 80% 29.64 in 10.0 mi West 5.8 mph - N/A   Overcast
2:25 AM 32.0 °F 26.4 °F 26.6 °F 80% 29.64 in 10.0 mi West 5.8 mph - N/A   Mostly Cloudy
2:45 AM 32.0 °F 25.6 °F 26.6 °F 80% 29.63 in 10.0 mi West 6.9 mph - N/A   Scattered Clouds
3:05 AM 32.0 °F 24.8 °F 26.6 °F 80% 29.63 in 10.0 mi West 8.1 mph - N/A   Scattered Clouds
3:25 AM 32.0 °F 25.6 °F 26.6 °F 80% 29.62 in 10.0 mi West 6.9 mph - N/A   Scattered Clouds
3:45 AM 32.0 °F 24.8 °F 26.6 °F 80% 29.62 in 10.0 mi West 8.1 mph - N/A   Clear
4:05 AM 32.0 °F 26.4 °F 26.6 °F 80% 29.62 in 10.0 mi West 5.8 mph - N/A   Scattered Clouds
4:25 AM 32.0 °F 26.4 °F 26.6 °F 80% 29.62 in 10.0 mi West 5.8 mph - N/A   Clear
4:45 AM 32.0 °F 27.5 °F 28.4 °F 87% 29.62 in 10.0 mi West 4.6 mph - N/A   Clear
5:05 AM 32.0 °F 26.4 °F 28.4 °F 87% 29.62 in 10.0 mi West 5.8 mph - N/A   Scattered Clouds
5:25 AM 32.0 °F 26.4 °F 28.4 °F 87% 29.62 in 10.0 mi West 5.8 mph - N/A   Mostly Cloudy
5:45 AM 33.8 °F 29.6 °F 28.4 °F 81% 29.62 in 10.0 mi West 4.6 mph - N/A   Mostly Cloudy
6:05 AM 33.8 °F 30.8 °F 28.4 °F 81% 29.62 in 10.0 mi West 3.5 mph - N/A   Scattered Clouds
6:25 AM 33.8 °F 29.6 °F 30.2 °F 87% 29.62 in 10.0 mi WSW 4.6 mph - N/A   Scattered Clouds
6:45 AM 33.8 °F 28.6 °F 30.2 °F 87% 29.61 in 10.0 mi West 5.8 mph - N/A   Clear
7:05 AM 33.8 °F 30.8 °F 30.2 °F 87% 29.62 in 10.0 mi SW 3.5 mph - N/A   Clear
7:25 AM 33.8 °F 29.6 °F 30.2 °F 87% 29.61 in 10.0 mi WSW 4.6 mph - N/A   Clear
7:45 AM 33.8 °F 28.6 °F 30.2 °F 87% 29.61 in 10.0 mi WSW 5.8 mph - N/A   Clear
8:05 AM 33.8 °F 27.7 °F 30.2 °F 87% 29.60 in 10.0 mi WSW 6.9 mph - N/A   Clear
8:25 AM 33.8 °F 27.7 °F 30.2 °F 87% 29.60 in 10.0 mi West 6.9 mph - N/A   Clear
8:45 AM 35.6 °F 30.7 °F 32.0 °F 87% 29.60 in 10.0 mi WSW 5.8 mph - N/A   Clear
9:05 AM 35.6 °F 29.2 °F 32.0 °F 87% 29.60 in 10.0 mi WSW 8.1 mph - N/A   Clear
9:25 AM 35.6 °F 29.9 °F 32.0 °F 87% 29.60 in 10.0 mi West 6.9 mph - N/A   Clear
9:45 AM 37.4 °F 31.4 °F 32.0 °F 81% 29.60 in 10.0 mi West 8.1 mph - N/A   Clear
10:05 AM 37.4 °F 31.4 °F 30.2 °F 75% 29.59 in 10.0 mi West 8.1 mph - N/A   Clear
10:25 AM 39.2 °F 33.0 °F 30.2 °F 70% 29.59 in 10.0 mi West 9.2 mph - N/A   Clear
10:45 AM 39.2 °F 35.0 °F 30.2 °F 70% 29.59 in 10.0 mi West 5.8 mph - N/A   Clear
11:05 AM 42.8 °F 38.0 °F 32.0 °F 66% 29.58 in 10.0 mi West 8.1 mph - N/A   Scattered Clouds
11:25 AM 44.6 °F 39.2 °F 32.0 °F 61% 29.57 in 10.0 mi West 10.4 mph - N/A   Scattered Clouds
11:45 AM 46.4 °F 41.5 °F 32.0 °F 57% 29.57 in 10.0 mi West 10.4 mph 16.1 mph N/A   Scattered Clouds
12:05 PM 46.4 °F 41.1 °F 30.2 °F 53% 29.56 in 10.0 mi WNW 11.5 mph 18.4 mph N/A   Scattered Clouds
12:25 PM 46.4 °F 42.4 °F 30.2 °F 53% 29.56 in 10.0 mi WNW 8.1 mph 17.3 mph N/A   Mostly Cloudy
12:45 PM 46.4 °F 40.1 °F 30.2 °F 53% 29.56 in 10.0 mi West 15.0 mph 18.4 mph N/A   Mostly Cloudy
1:05 PM 46.4 °F 41.1 °F 28.4 °F 50% 29.55 in 10.0 mi WNW 11.5 mph 18.4 mph N/A   Mostly Cloudy
1:25 PM 46.4 °F 42.4 °F 30.2 °F 53% 29.55 in 10.0 mi West 8.1 mph 16.1 mph N/A   Mostly Cloudy
1:45 PM 46.4 °F 41.5 °F 28.4 °F 50% 29.54 in 10.0 mi WNW 10.4 mph - N/A   Mostly Cloudy
2:05 PM 46.4 °F 44.3 °F 30.2 °F 53% 29.54 in 10.0 mi WNW 4.6 mph - N/A   Mostly Cloudy
2:25 PM 46.4 °F 42.4 °F 28.4 °F 50% 29.53 in 10.0 mi WNW 8.1 mph 16.1 mph N/A   Mostly Cloudy
2:45 PM 48.2 °F - 30.2 °F 50% 29.53 in 10.0 mi West 12.7 mph 23.0 mph N/A   Mostly Cloudy
3:05 PM 46.4 °F 41.5 °F 30.2 °F 53% 29.53 in 10.0 mi West 10.4 mph - N/A   Mostly Cloudy
3:25 PM 46.4 °F 40.4 °F 32.0 °F 57% 29.53 in 10.0 mi West 13.8 mph - N/A   Mostly Cloudy
3:45 PM 46.4 °F 41.1 °F 30.2 °F 53% 29.53 in 10.0 mi West 11.5 mph 19.6 mph N/A   Mostly Cloudy
4:05 PM 46.4 °F 41.5 °F 32.0 °F 57% 29.54 in 10.0 mi WNW 10.4 mph - N/A   Mostly Cloudy
4:25 PM 46.4 °F 40.4 °F 30.2 °F 53% 29.53 in 10.0 mi West 13.8 mph 19.6 mph N/A   Overcast
4:45 PM 46.4 °F 41.5 °F 30.2 °F 53% 29.54 in 10.0 mi West 10.4 mph 16.1 mph N/A   Overcast
5:05 PM 46.4 °F 42.4 °F 30.2 °F 53% 29.53 in 10.0 mi West 8.1 mph - N/A   Mostly Cloudy
5:25 PM 46.4 °F 41.5 °F 30.2 °F 53% 29.53 in 10.0 mi West 10.4 mph - N/A   Mostly Cloudy
5:45 PM 46.4 °F 42.4 °F 32.0 °F 57% 29.53 in 10.0 mi West 8.1 mph - N/A   Mostly Cloudy
6:05 PM 46.4 °F 42.9 °F 32.0 °F 57% 29.53 in 10.0 mi West 6.9 mph - N/A   Scattered Clouds
6:25 PM 46.4 °F 42.4 °F 32.0 °F 57% 29.53 in 10.0 mi West 8.1 mph - N/A   Scattered Clouds
6:45 PM 42.8 °F 40.1 °F 32.0 °F 66% 29.53 in 10.0 mi West 4.6 mph - N/A   Scattered Clouds
7:05 PM 41.0 °F 38.0 °F 32.0 °F 70% 29.53 in 10.0 mi West 4.6 mph - N/A   Clear
7:25 PM 41.0 °F 39.0 °F 32.0 °F 70% 29.53 in 10.0 mi WSW 3.5 mph - N/A   Clear
7:45 PM 39.2 °F - 32.0 °F 75% 29.53 in 10.0 mi Calm Calm - N/A   Clear
8:05 PM 39.2 °F 37.0 °F 30.2 °F 70% 29.53 in 10.0 mi WSW 3.5 mph - N/A   Clear
8:25 PM 39.2 °F 37.0 °F 30.2 °F 70% 29.53 in 10.0 mi SW 3.5 mph - N/A   Clear
8:45 PM 39.2 °F 35.9 °F 30.2 °F 70% 29.53 in 10.0 mi WSW 4.6 mph - N/A   Clear
9:05 PM 39.2 °F 37.0 °F 30.2 °F 70% 29.53 in 10.0 mi SW 3.5 mph - N/A   Clear
9:25 PM 37.4 °F 33.8 °F 32.0 °F 81% 29.53 in 10.0 mi SW 4.6 mph - N/A   Clear
9:45 PM 37.4 °F 33.8 °F 30.2 °F 75% 29.53 in 10.0 mi SW 4.6 mph - N/A   Clear
10:05 PM 37.4 °F 33.8 °F 32.0 °F 81% 29.53 in 10.0 mi SW 4.6 mph - N/A   Clear
10:25 PM 37.4 °F 34.9 °F 32.0 °F 81% 29.52 in 10.0 mi WSW 3.5 mph - N/A   Clear
10:45 PM 37.4 °F 32.8 °F 32.0 °F 81% 29.52 in 10.0 mi WSW 5.8 mph - N/A   Clear
11:05 PM 35.6 °F 31.7 °F 32.0 °F 87% 29.52 in 10.0 mi WSW 4.6 mph - N/A   Clear
11:25 PM 35.6 °F 30.7 °F 32.0 °F 87% 29.52 in 10.0 mi West 5.8 mph - N/A   Clear
11:45 PM 35.6 °F 31.7 °F 32.0 °F 87% 29.52 in 10.0 mi WSW 4.6 mph - N/A   Clear